Flag for U.S.A. Weather past 2 weeks in Mobile, Alabama, U.S.A.

Now
45 °F

Clear.


Feels Like: 42 °F
Forecast: 40 / 64 °F
Wind: 6 mph from North

Location: Mobile Downtown Airport

Current Time: Dec 18, 2014 at 5:52:14 AM

Latest Report: Dec 18, 2014 at 4:53 AM


Visibility: 10 mi

Pressure: 30.20 "Hg

Humidity: 86%

Dew point: 41 °F

Location of MobileLocation

Historic Weather in Mobile — Graph

°F

Mobile temperature yesterday

Maximum temperature yesterday: 61 °F (at 2:53 PM)
Minimum temperature yesterday: 38 °F (at 5:53 AM)
Average temperature yesterday: 48 °F

Past Weeks' High & Low Weather Summary

 TemperatureHumidityPressure
High78 °F (Dec 6, 11:53 AM)100% (Dec 4, 12:00 AM)30.40 "Hg (Dec 4, 12:00 AM)
Low36 °F (Dec 11, 4:53 AM)30% (Dec 9, 2:53 PM)30.03 "Hg (Dec 15, 3:53 PM)
Average56 °F75%30.22 "Hg
* Reported Dec 3 3:53 AM — Dec 18 3:53 AM, Mobile, Weather by CustomWeather, © 2014

Note: Actual official high and low records may vary slightly from our data, if they occured in-between our weather recording intervals... More about our weather records

Advertising

Mobile weather history for previous 24 hours

 ConditionsComfort  
Time TempWeatherWind HumidityBarometerVisibility
3:53 AM
Dec 18
46 °FClear.8 mph86%30.20 "Hg10 mi
2:53 AM43 °FClear.No wind93%30.19 "Hg10 mi
1:53 AM46 °FClear.6 mph86%30.20 "Hg10 mi
12:53 AM45 °FClear.5 mph90%30.20 "Hg10 mi
11:53 PM
Dec 17
46 °FClear.5 mph86%30.21 "Hg10 mi
10:53 PM45 °FClear.No wind90%30.22 "Hg10 mi
9:53 PM45 °FClear.No wind90%30.22 "Hg10 mi
8:53 PM47 °FClear.3 mph83%30.21 "Hg10 mi
7:53 PM44 °FClear.No wind85%30.22 "Hg10 mi
6:53 PM46 °FClear.No wind79%30.22 "Hg10 mi
5:53 PM50 °FClear.3 mph71%30.22 "Hg10 mi
4:53 PM53 °FClear.6 mph61%30.21 "Hg10 mi
3:53 PM59 °FSunny.9 mph49%30.20 "Hg8 mi
2:53 PM61 °FSunny.6 mph46%30.19 "Hg10 mi
1:53 PM57 °FSunny.7 mph55%30.19 "Hg10 mi
12:53 PM57 °FSunny.7 mph53%30.22 "Hg10 mi
11:53 AM56 °FSunny.6 mph58%30.26 "Hg10 mi
10:53 AM55 °FSunny.6 mph57%30.29 "Hg10 mi
9:53 AM52 °FSunny.7 mph64%30.31 "Hg10 mi
8:53 AM49 °FSunny.7 mph69%30.30 "Hg10 mi
7:53 AM45 °FSunny.6 mph80%30.29 "Hg10 mi
6:53 AM39 °FSunny.6 mph86%30.28 "Hg10 mi
5:53 AM38 °FClear.6 mph90%30.26 "Hg10 mi
Weather by CustomWeather, © 2014

See weather overviewHow to use our weather pages